Regional Weather Roundup
Issued by NWS

Home | Current Version | Previous Version | Text Only | Print | Product List | Glossary On
Versions: 1 2 3 4 5 6 7 8 9 10 11 12 13 14 15 16 17 18 19 20 21 22 23 24 25 26 27 28 29 30 31 32 33 34 35 36 37 38 39 40 41 42 43 44 45 46 47 48 49 50
000
ASUS45 KBOI 241610
RWRID

IDAHO REGIONAL WEATHER ROUNDUP
NATIONAL WEATHER SERVICE BOISE ID
900 AM MST TUE JAN 24 2017

NOTE: "FAIR" INDICATES FEW OR NO CLOUDS BELOW 12000 FEET
WITH NO SIGNIFICANT WEATHER AND/OR OBSTRUCTIONS TO VISIBILITY

IDZ012-014-241700-
SOUTHWEST IDAHO


CITY           SKY/WX    TMP DP  RH WIND       PRES   REMARKS
BOISE          PTCLDY    24  19  81 W8        29.82R WCI  15
CALDWELL       PTCLDY    26  21  81 W20       29.87R WCI  12
MOUNTAIN HOME  PTCLDY    27  27  99 NW23      29.79R WCI  12
$$

IDZ016-017-241700-
SOUTHCENTRAL IDAHO


CITY           SKY/WX    TMP DP  RH WIND       PRES   REMARKS
BURLEY         LGT SNOW  26  22  84 W12       29.75R FOG     WCI  16
JEROME         LGT SNOW  23  23 100 W13       29.76R FOG     WCI  11
TWIN FALLS     LGT SNOW  25  21  85 W21       29.76R FOG     WCI  11
$$

IDZ019>023-241700-
SOUTHEAST IDAHO


CITY           SKY/WX    TMP DP  RH WIND       PRES   REMARKS
IDAHO FALLS    LGT SNOW  22  21  96 N15       29.69R FOG     WCI   9
POCATELLO      LGT SNOW  24  23  96 SW8       29.75R FOG     WCI  15
REXBURG        LGT SNOW  22  18  85 NE3       29.71R FOG
$$

IDZ006-010-011-018-031-032-241700-
CENTRAL IDAHO MOUNTAINS


CITY           SKY/WX    TMP DP  RH WIND       PRES   REMARKS
MCCALL         MOCLDY    20  13  74 NW7       29.75R WCI  11
HAILEY         MOCLDY    19  18  93 CALM      29.72R
STANLEY          N/A      8   5  87 CALM      29.71R
SALMON         CLOUDY     9   9 100 CALM      29.84R
CHALLIS        MOCLDY    19  11  70 N8        29.76R WCI   9
$$

IDZ002-004-006-007-026-241700-
NORTHERN IDAHO


CITY           SKY/WX    TMP DP  RH WIND       PRES   REMARKS
LEWISTON       CLOUDY    32  28  85 SW5       30.03R WCI  27
LOWELL           N/A     32  28  85 CALM      30.03R
COEUR D`ALENE  CLOUDY    30  29  96 NE3       29.98R
MULLAN PASS    FOG       20  16  84 NW3       29.79S VSB 1/2
$$



USA.gov is the U.S. government's official web portal to all federal, state and local government web resources and services.